Preview of NWS' New Version of Forecast
This preview is not operational and should not be used for support decisions.

Regional Weather Roundup (RWR)

Issued by National Weather Service (NWS)

                            
000
ASUS45 KABQ 170801
RWRNM 
NEW MEXICO REGIONAL WEATHER ROUNDUP
NATIONAL WEATHER SERVICE ALBUQUERQUE NM
100 AM MST SUN FEB 17 2019

NOTE: "FAIR" MEANS FEW OR NO CLOUDS BELOW 12,000 FEET AGL WITH NO
       SIGNIFICANT WEATHER OR OBSTRUCTIONS TO VISION.

      THIS PRODUCT IS RELEASED AS TWO VERSIONS.  ONE VERSION NEAR
      THE TOP OF THE HOUR CONTAINING PRELIMINARY DATA FROM ALBUQUERQUE
      AND OTHER STATIONS.  A FINAL VERSION WITH ADDITIONAL DATA IS 
      ISSUED ABOUT 10 MINUTES AFTER THE HOUR.
 
NMZ501-503-504-510>518-170900-
NORTHWEST PLATEAU/NORTHCENTRAL MOUNTAINS
  
CITY           SKY/WX    TMP DP  RH WIND       PRES   REMARKS
FARMINGTON     FAIR      23  19  85 N7        29.84S WCI  15          
LOS ALAMOS     FAIR      25   4  40 E7        29.80S WCI  17          
SANTA FE       FAIR      22  12  65 SW6       29.81S WCI  14          
TAOS           FAIR      19  13  77 NE5       29.82R WCI  12          
ANGEL FIRE       N/A      5   3  88 CALM      29.77R                  

$$
NMZ402-403-502-505>509-170900-
WESTCENTRAL MOUNTAINS/SOUTHWEST MOUNTAINS
  
CITY           SKY/WX    TMP DP  RH WIND       PRES   REMARKS
GALLUP         FAIR      26  18  71 SW7       29.86R WCI  18          
GRANTS         FAIR      26  17  69 W10G16    29.86S WCI  16          
SILVER CITY    FAIR      33  18  54 NW17G23   29.89R WCI  22          

$$
NMZ407-409-411-412-170900-
SOUTHERN DESERTS
  
CITY           SKY/WX    TMP DP  RH WIND       PRES   REMARKS
DEMING         FAIR      37  20  50 W9        29.90R WCI  30          
LAS CRUCES     FAIR      40  21  47 NW5       29.89R                  
HOLLOMAN AFB   MOCLDY    37  20  51 N6        29.88R WCI  32          
ALAMOGORDO     FAIR      39  19  45 MISG      29.86S                  
T OR C         FAIR      40  15  36 VRB6      29.86R                  

$$
NMZ519>523-170900-
CENTRAL VALLEYS/CENTRAL HIGHLANDS
  
CITY           SKY/WX    TMP DP  RH WIND       PRES   REMARKS
ALBUQUERQUE    FAIR      30  17  58 W5        29.85S WCI  25          
DOUBLE EAGLE   FAIR      25  15  67 NW9       29.85S WCI  15          
MORIARTY ARPT  FAIR      24  14  65 W8        29.84S WCI  15          
CLINES CORNERS FAIR      21  10  62 W14       29.80S WCI   8          
BELEN          FAIR      30  20  66 W7        29.87S WCI  23          
SOCORRO        NOT AVBL                                               

$$
NMZ524>526-539-540-170900-
SOUTHCENTRAL MOUNTAINS
  
CITY           SKY/WX    TMP DP  RH WIND       PRES   REMARKS
RUIDOSO        NOT AVBL                                               

$$
NMZ527>531-170900-
NORTHEAST HIGHLANDS/NORTHEAST PLAINS
  
CITY           SKY/WX    TMP DP  RH WIND       PRES   REMARKS
LAS VEGAS      FAIR      21   3  45 NW7       29.78R WCI  12          
RATON          FAIR      13   6  74 E6        29.74R WCI   4          
CLAYTON        FAIR      24  17  74 NW13      29.76R WCI  12          

$$
NMZ532>537-170900-
EASTCENTRAL PLAINS
  
CITY           SKY/WX    TMP DP  RH WIND       PRES   REMARKS
SANTA ROSA     FAIR      31  14  49 W10       29.81R WCI  22          
TUCUMCARI      FAIR      27  12  53 SE5       29.79R WCI  22          
CANNON AFB     FAIR      33   9  36 NW13      29.81R WCI  24          
CLOVIS AIRPORT FAIR      28  16  60 N10       29.83R WCI  19          

$$
NMZ028-029-538-170900-
SOUTHEAST PLAINS
  
CITY           SKY/WX    TMP DP  RH WIND       PRES   REMARKS
ROSWELL        FAIR      44  20  38 NW8       29.81R                  
ARTESIA        FAIR      37  19  48 NW8       29.84R WCI  31          
CARLSBAD       FAIR      43  19  38 NW3       29.82R                  
HOBBS          FAIR      41  16  36 NW10      29.82R                  


$$